Regional Weather Roundup
Issued by NWS Jackson, KY

Home | Current Version | Previous Version | Text Only | Print | Product List | Glossary Off
Versions: 1 2 3 4 5 6 7 8 9 10 11 12 13 14 15 16 17 18 19 20 21 22 23 24 25 26 27 28 29 30 31 32 33 34 35 36 37 38 39 40 41 42 43 44 45 46 47 48 49 50

000
ASUS43 KJKL 291210
RWRJKL

EAST KENTUCKY HOURLY WEATHER ROUNDUP
NATIONAL WEATHER SERVICE JACKSON KY
800 AM EDT SUN MAR 29 2015

NOTE: "FAIR" INDICATES FEW OR NO CLOUDS BELOW 12,000 FEET WITH
NO SIGNIFICANT WEATHER AND/OR OBSTRUCTIONS TO VISIBILITY.

* THESE REPORTS ARE NOT UNDER NWS QUALITY CONTROL AND MAY NOT
  REPORT WEATHER SUCH AS PRECIPITATION AND FOG.

KYZ079-080-083-085-087-088-110-112-115-119-120-291300
...EASTERN KENTUCKY...

CITY           SKY/WX    TMP DP  RH WIND       PRES   REMARKS
JACKSON        CLEAR     24   9  52 SE5       30.35R WCI  18
6HR MIN TEMP:  23; 6HR MAX TEMP:  27;

LONDON         CLEAR     22  15  75 CALM      30.35R
6HR MIN TEMP:  21; 6HR MAX TEMP:  28;

SOMERSET*      CLEAR     21  18  86 CALM      30.38R
MONTICELLO*    CLEAR     19  15  84 CALM      30.38S
6HR MIN TEMP:  16; 6HR MAX TEMP:  21;

MIDDLESBORO*   CLEAR     21  19  92 CALM      30.39R
6HR MIN TEMP:  20; 6HR MAX TEMP:  26;

BLACK MTN*       N/A     21  -6  30 SW8         N/A  WCI  12
PIKEVILLE APT* CLEAR     23  12  63 CALM      30.36R
BIG SANDY*     SUNNY     21  15  76 CALM      30.38R
6HR MIN TEMP:  20; 6HR MAX TEMP:  26;

MOREHEAD APT*  SUNNY     23  12  63 SE5       30.39R WCI  17
$$

KYZ035-036-041-042-044-050-067-078-099-291300
...CENTRAL KENTUCKY...

CITY           SKY/WX    TMP DP  RH WIND       PRES   REMARKS
MT STERLING*   CLEAR     25  14  63 SE5       30.38R WCI  19
FLEMING/MASON* CLEAR     21  14  73 SE6       30.38R WCI  14
DANVILLE*      CLEAR     19  18  93 CALM      30.36R
RICHMOND*      CLEAR     21  14  73 SE5       30.35R WCI  15
LEXINGTON      CLEAR     25  13  60 SE8       30.35R WCI  16
6HR MIN TEMP:  23; 6HR MAX TEMP:  28;

FRANKFORT      CLEAR     22  14  71 S3        30.35R
6HR MIN TEMP:  19; 6HR MAX TEMP:  24;

$$

KYZ091>093-OHZ055-061-077-WVZ005-015-034-035-042-291300
...SOUTHERN OHIO/WEST VIRGINIA...

CITY           SKY/WX    TMP DP  RH WIND       PRES   REMARKS
COVINGTON      PTCLDY    25  14  63 S13       30.32F WCI  14
COLUMBUS         N/A     20  14  77 S3        30.36R
DAYTON         PTCLDY    25  14  63 S10       30.33S WCI  15
WILMINGTON     CLEAR     23  13  65 S7        30.34R WCI  15
HUNTINGTON     CLEAR     19  13  77 CALM      30.40R
CHARLESTON     CLEAR     19  16  88 CALM      30.39R
PINEVILLE*       N/A     17  17  96 MISG      30.41R
BECKLEY        CLEAR     15   9  76 S5        30.30R WCI   8
BLUEFIELD      CLEAR     20   7  57 CALM      30.29R
$$

VAZ002-007-008-TNZ017-027-036-066-071-291300
...SOUTHWEST VIRGINIA/EAST TENNESSEE...

CITY           SKY/WX    TMP DP  RH WIND       PRES   REMARKS
WISE*          CLEAR     21   9  58 SE3       30.30R
JONESVILLE*    SUNNY     18  16  93 CALM      30.40R
ABINGDON*      CLEAR     21  13  72 CALM      30.34R
BRISTOL        CLEAR     20  14  77 CALM      30.37R
KNOXVILLE      CLEAR     26  18  71 NE3       30.37R
OAK RIDGE      CLEAR     25  20  81 CALM      30.39R
CROSSVILLE     CLEAR     26  14  60 E5        30.31R WCI  20
NASHVILLE      PTCLDY    28  18  66 SE6       30.34S WCI  22
$$

...KEY TO REMARKS...
VSB - VISIBILITY IN MILES
WCI - WIND CHILL INDEX
HX  - HEAT INDEX

$$



USA.gov is the U.S. government's official web portal to all federal, state and local government web resources and services.